{"data":{"norad_id":67504,"epoch":"2026-09-19T19:32:31.759872Z","epoch_age_seconds":131429,"freshness":"FRESH","line1":"1 67504U 26012M   26262.81425648  .00007324  00000+0  27539-3 0  9993","line2":"2 67504  43.0007 297.8289 0001714 268.4663  91.5992 15.27583056 37457","mean_motion":15.27583056,"eccentricity":0.0001714,"inclination_deg":43.0007,"raan_deg":297.8289,"arg_perigee_deg":268.4663,"mean_anomaly_deg":91.5992,"bstar":0.00027539,"rev_number":3745,"period_min":94.266560128695,"perigee_km":481.8639395631,"apogee_km":484.21595101994,"semimajor_km":6861.1769452915,"source":"CELESTRAK","updated_at":"2026-09-20T09:00:43.559056Z"}}